North Platte, NE

3:05 PM CST on November 23, 2017 (GMT -0600)
North Platte Regional-Bird

Weather History for KLBF - February, 2013

Change the Weather History Date:

Thursday, February 21, 2013

  Actual Average Record
Temperature  
Mean Temperature 16 °F 31 °F  
Max Temperature 18 °F 45 °F 79 °F (2017)
Min Temperature 13 °F 17 °F -11 °F (1978)
Degree Days  
Heating Degree Days 49 34  
Month to date heating degree days 706 776  
Since 1 July heating degree days 4661 4796  
Cooling Degree Days 0 0  
Month to date cooling degree days 0 0  
Year to date cooling degree days 0 0  
Moisture  
Dew Point 12 °F    
Average Humidity 82    
Maximum Humidity 84    
Minimum Humidity 80    
Precipitation  
Precipitation 0.37 in 0.02 in 0.37 in (2013)
Month to date precipitation 1.04 0.33  
Year to date precipitation 1.28 0.67  
Snow  
Snow 4.60 in 0.20 in 4.60 in (2013)
Month to date snowfall 11.0 4.0  
Since 1 July snowfall 19.9 19.6  
Snow Depth 3.00 in    
Sea Level Pressure  
Sea Level Pressure 29.95 in    
Wind  
Wind Speed 12 mph (ENE)    
Max Wind Speed 21 mph    
Max Gust Speed 25 mph    
Visibility 2 miles    
Events Fog , Snow    
T = Trace of Precipitation, MM = Missing Value Source: NWS Daily Summary

Daily Weather History Graph

Daily Weather History Graph

Search for Another Location

Airport or City:

Trip Planner

Search our weather history database for the weather conditions in past years. The results will help you decide how hot, cold, wet, or windy it might be!

Date:

Astronomy

Feb. 21, 2013 Rise Set
Actual Time 7:28 AM CST 6:24 PM CST
Civil Twilight 7:00 AM CST 6:52 PM CST
Nautical Twilight 6:28 AM CST 7:24 PM CST
Astronomical Twilight 5:56 AM CST 7:56 PM CST
Moon 2:39 PM CST (2/21) 4:35 AM CST (2/21)
Length of Visible Light 11h 51m
Length of Day
10h 56m
Waxing Gibbous, 84% of the Moon is Illuminated
Feb 21
Waxing Gibbous
Feb 25
Full
Mar 4
Last Quarter
Mar 11
New
Mar 19
First Quarter

Hourly Weather History & Observations

Time (CST) Temp. Windchill Dew Point Humidity Pressure Visibility Wind Dir Wind Speed Gust Speed Precip Events Conditions
12:10 AM 17.6 °F 2.2 °F 14.0 °F 86% 29.95 in 1.0 mi ESE 17.3 mph - 0.02 in Snow Light Snow
12:18 AM 17.6 °F 2.2 °F 14.0 °F 86% 29.94 in 2.0 mi ESE 17.3 mph - 0.03 in Snow Light Snow
12:32 AM 17.6 °F 3.2 °F 14.0 °F 86% 29.95 in 3.0 mi ESE 15.0 mph - 0.03 in Snow Light Snow
12:53 AM 17.1 °F 1.5 °F 12.9 °F 84% 30.06 in 5.0 mi ESE 17.3 mph - 0.03 in Snow Light Snow
1:06 AM 17.6 °F 2.7 °F 12.2 °F 79% 29.94 in 2.5 mi ESE 16.1 mph - 0.00 in Snow Light Snow
1:16 AM 17.6 °F 3.7 °F 12.2 °F 79% 29.93 in 5.0 mi ESE 13.8 mph 23.0 mph 0.00 in Snow Light Snow
1:40 AM 17.6 °F 2.7 °F 12.2 °F 79% 29.93 in 2.5 mi ESE 16.1 mph - 0.00 in Snow Light Snow
1:51 AM 17.6 °F 2.7 °F 14.0 °F 86% 29.93 in 1.2 mi ESE 16.1 mph - 0.01 in Snow Light Snow
1:52 AM 17.1 °F 2.5 °F 14.0 °F 88% 30.05 in 1.2 mi ESE 15.0 mph - 0.01 in Snow Light Snow
2:22 AM 17.6 °F 2.7 °F 12.2 °F 79% 29.94 in 1.0 mi ESE 16.1 mph - 0.02 in Snow Light Snow
2:35 AM 17.6 °F 3.2 °F 12.2 °F 79% 29.92 in 1.2 mi East 15.0 mph - 0.02 in Snow Light Snow
2:53 AM 17.1 °F 1.5 °F 12.9 °F 84% 30.03 in 1.8 mi East 17.3 mph - 0.04 in Snow Light Snow
2:59 AM 17.6 °F 1.7 °F 12.2 °F 79% 29.91 in 2.5 mi East 18.4 mph - 0.00 in Snow Light Snow
3:02 AM 17.6 °F 2.2 °F 12.2 °F 79% 29.91 in 3.0 mi East 17.3 mph - 0.00 in Snow Light Snow
3:12 AM 17.6 °F 2.7 °F 12.2 °F 79% 29.88 in 4.0 mi East 16.1 mph - 0.00 in Snow Light Snow
3:53 AM 17.1 °F 2.5 °F 12.9 °F 84% 30.01 in 2.5 mi ESE 15.0 mph - 0.00 in Snow Light Snow
4:33 AM 17.6 °F 3.7 °F 12.2 °F 79% 29.90 in 1.2 mi East 13.8 mph - 0.01 in Snow Light Snow
4:39 AM 17.6 °F 3.7 °F 12.2 °F 79% 29.90 in 0.8 mi ESE 13.8 mph - 0.02 in Snow Light Snow
4:49 AM 17.6 °F 3.7 °F 12.2 °F 79% 29.91 in 1.2 mi ESE 13.8 mph - 0.03 in Snow Light Snow
4:53 AM 17.1 °F 4.3 °F 12.9 °F 84% 30.02 in 1.2 mi East 11.5 mph - 0.03 in Snow Light Snow
5:21 AM 17.6 °F 4.3 °F 12.2 °F 79% 29.91 in 2.0 mi East 12.7 mph - 0.01 in Snow Light Snow
5:41 AM 17.6 °F 5.7 °F 12.2 °F 79% 29.90 in 1.8 mi East 10.4 mph - 0.02 in Snow Light Snow
5:53 AM 17.1 °F 6.6 °F 14.0 °F 88% 30.01 in 2.5 mi East 8.1 mph - 0.02 in Snow Light Snow
5:59 AM 17.6 °F 6.4 °F 12.2 °F 79% 29.90 in 2.5 mi East 9.2 mph - 0.00 in Snow Light Snow
6:17 AM 17.6 °F 7.3 °F 14.0 °F 86% 29.91 in 1.5 mi ESE 8.1 mph - 0.01 in Snow Light Snow
6:50 AM 17.6 °F 4.3 °F 14.0 °F 86% 29.90 in 1.2 mi East 12.7 mph - 0.03 in Snow Light Snow
6:53 AM 17.1 °F 3.0 °F 14.0 °F 88% 30.01 in 1.5 mi East 13.8 mph - 0.03 in Snow Light Snow
7:02 AM 17.6 °F 2.7 °F 12.2 °F 79% 29.91 in 2.0 mi East 16.1 mph - 0.01 in Snow Light Snow
7:11 AM 17.6 °F 3.7 °F 14.0 °F 86% 29.91 in 5.0 mi East 13.8 mph - 0.01 in Snow Light Snow
7:20 AM 17.6 °F 5.7 °F 14.0 °F 86% 29.91 in 2.0 mi East 10.4 mph - 0.01 in Snow Light Snow
7:23 AM 17.6 °F 3.7 °F 14.0 °F 86% 29.92 in 1.2 mi East 13.8 mph - 0.01 in Snow Light Snow
7:44 AM 17.6 °F 5.7 °F 12.2 °F 79% 29.93 in 1.8 mi East 10.4 mph - 0.03 in Snow Light Snow
7:53 AM 17.1 °F 6.6 °F 12.9 °F 84% 30.05 in 2.5 mi East 8.1 mph - 0.03 in Snow Light Snow
8:06 AM 17.6 °F 7.3 °F 12.2 °F 79% 29.93 in 1.5 mi East 8.1 mph - 0.00 in Snow Light Snow
8:21 AM 17.6 °F 6.4 °F 12.2 °F 79% 29.93 in 1.0 mi East 9.2 mph - 0.01 in Snow Light Snow
8:34 AM 17.6 °F 7.3 °F 12.2 °F 79% 29.93 in 0.8 mi East 8.1 mph - 0.02 in Snow Light Snow
8:53 AM 17.1 °F 4.3 °F 12.0 °F 81% 30.06 in 1.2 mi East 11.5 mph - 0.02 in Snow Light Snow
9:03 AM 17.6 °F 6.4 °F 12.2 °F 79% 29.94 in 1.8 mi East 9.2 mph - 0.00 in Snow Light Snow
9:12 AM 17.6 °F 6.4 °F 12.2 °F 79% 29.94 in 2.5 mi East 9.2 mph - 0.00 in Snow Light Snow
9:21 AM 17.6 °F 8.2 °F 12.2 °F 79% 29.94 in 3.0 mi East 6.9 mph - 0.00 in Snow Light Snow
9:39 AM 17.6 °F 6.4 °F 12.2 °F 79% 29.95 in 2.0 mi East 9.2 mph - 0.01 in Snow Light Snow
9:51 AM 17.6 °F 7.3 °F 12.2 °F 79% 29.94 in 1.2 mi ENE 8.1 mph - 0.01 in Snow Light Snow
9:53 AM 17.1 °F 6.6 °F 12.0 °F 81% 30.06 in 1.0 mi ENE 8.1 mph - 0.01 in Snow Light Snow
10:00 AM 17.6 °F 6.4 °F 12.2 °F 79% 29.94 in 0.8 mi ENE 9.2 mph - 0.00 in Snow Light Snow
10:53 AM 17.1 °F 6.6 °F 12.0 °F 81% 30.04 in 0.8 mi ENE 8.1 mph - 0.02 in Snow Light Snow
11:53 AM 17.1 °F 5.0 °F 12.0 °F 81% 30.03 in 1.0 mi NE 10.4 mph - 0.02 in Snow Light Snow
12:00 PM 17.6 °F 6.4 °F 12.2 °F 79% 29.90 in 0.8 mi NE 9.2 mph - 0.00 in Snow Light Snow
12:45 PM 17.6 °F 5.7 °F 12.2 °F 79% 29.89 in 1.0 mi NE 10.4 mph - 0.01 in Snow Light Snow
12:53 PM 17.1 °F 5.8 °F 12.0 °F 81% 30.01 in 0.8 mi NNE 9.2 mph - 0.02 in Snow Light Snow
1:17 PM 17.6 °F 3.7 °F 12.2 °F 79% 29.88 in 0.8 mi NNE 13.8 mph - 0.01 in Snow Light Snow
1:53 PM 17.1 °F 2.0 °F 12.0 °F 81% 29.98 in 0.8 mi NNE 16.1 mph - 0.01 in Snow Light Snow
2:12 PM 17.6 °F 2.2 °F 12.2 °F 79% 29.86 in 1.0 mi NNE 17.3 mph 21.9 mph 0.01 in Snow Light Snow
2:30 PM 15.8 °F 0.3 °F 10.4 °F 79% 29.86 in 0.8 mi NNE 16.1 mph 20.7 mph 0.02 in Snow Light Snow
2:53 PM 16.0 °F 2.3 °F 10.9 °F 81% 29.99 in 0.5 mi NNE 12.7 mph - 0.02 in Snow Snow
3:12 PM 15.8 °F 0.9 °F 10.4 °F 79% 29.86 in 0.8 mi NNE 15.0 mph - 0.01 in Snow Light Snow
3:51 PM 17.6 °F 5.0 °F 12.2 °F 79% 29.87 in 0.2 mi NNE 11.5 mph - 0.02 in Snow Heavy Snow
3:53 PM 17.1 °F 3.6 °F 12.0 °F 81% 29.99 in 0.5 mi NNE 12.7 mph - 0.02 in Snow Snow
4:04 PM 15.8 °F 0.9 °F 12.2 °F 86% 29.86 in 0.5 mi NNE 15.0 mph - 0.01 in Fog , Snow Light Snow
4:53 PM 17.1 °F 5.0 °F 12.0 °F 81% 29.99 in 0.5 mi NNE 10.4 mph - 0.02 in Snow Snow
5:05 PM 17.6 °F 4.3 °F 12.2 °F 79% 29.86 in 0.8 mi North 12.7 mph - 0.01 in Snow Light Snow
5:26 PM 15.8 °F 2.1 °F 12.2 °F 86% 29.87 in 1.0 mi NNE 12.7 mph - 0.01 in Snow Light Snow
5:53 PM 16.0 °F 1.1 °F 10.9 °F 81% 29.99 in 1.5 mi NNE 15.0 mph - 0.01 in Snow Light Snow
6:38 PM 15.8 °F -1.5 °F 10.4 °F 79% 29.87 in 2.0 mi NE 20.7 mph 25.3 mph 0.01 in Snow Light Snow
6:45 PM 15.8 °F -0.2 °F 10.4 °F 79% 29.87 in 1.5 mi NNE 17.3 mph 25.3 mph 0.01 in Snow Light Snow
6:53 PM 16.0 °F 2.3 °F 10.9 °F 81% 30.00 in 1.8 mi NE 12.7 mph - 0.01 in Snow Light Snow
7:01 PM 15.8 °F -0.2 °F 10.4 °F 79% 29.88 in 1.8 mi NNE 17.3 mph 23.0 mph 0.00 in Snow Light Snow
7:43 PM 15.8 °F 2.1 °F 10.4 °F 79% 29.90 in 2.0 mi NE 12.7 mph - 0.01 in Snow Light Snow
7:53 PM 15.1 °F 1.1 °F 10.0 °F 80% 30.03 in 3.0 mi NE 12.7 mph - 0.01 in Snow Light Snow
8:12 PM 15.8 °F 7.2 °F 10.4 °F 79% 29.90 in 2.5 mi NNE 5.8 mph - 0.00 in Snow Light Snow
8:26 PM 15.8 °F 5.1 °F 10.4 °F 79% 29.91 in 3.0 mi NNE 8.1 mph - 0.00 in Snow Light Snow
8:53 PM 15.1 °F 3.3 °F 10.0 °F 80% 30.04 in 4.0 mi NNE 9.2 mph - 0.00 in   Haze
9:53 PM 14.0 °F 2.0 °F 9.0 °F 80% 30.05 in 10.0 mi North 9.2 mph - N/A   Overcast
10:51 PM 14.0 °F 2.9 °F 8.6 °F 79% 29.92 in 6.0 mi NNW 8.1 mph - 0.00 in   Haze
10:53 PM 12.9 °F 1.6 °F 9.0 °F 84% 30.05 in 7.0 mi NNW 8.1 mph - 0.00 in   Mostly Cloudy
11:07 PM 14.0 °F 2.9 °F 8.6 °F 79% 29.91 in 9.0 mi North 8.1 mph - N/A   Scattered Clouds
11:53 PM 14.0 °F 2.9 °F 8.6 °F 79% 29.91 in 5.0 mi NNW 8.1 mph - N/A Snow Light Snow